Other Public Products
Issued by NWS Grand Forks, ND

Home | Current Version | Previous Version | Text Only | Print | Product List | Glossary Off
Versions: 1 2 3 4 5 6 7 8 9 10 11 12 13 14 15 16 17 18 19 20 21 22 23 24 25 26 27 28 29 30 31 32 33 34 35 36 37 38 39 40 41 42 43 44 45 46 47 48 49 50

000
FPUS83 KFGF 230331
OPUFGF
PRAIRIE TO PINES WEATHER ROUNDUP
NATIONAL WEATHER SERVICE EASTERN NORTH DAKOTA/GRAND FORKS ND
900 PM CST SUN JAN 22 2017

 **SATELLITE DATA USED TO AUGMENT SKY COVER AT AUTOMATED STATIONS**
 *****  WEATHER ACROSS EASTERN NORTH DAKOTA  *****

CITY           SKY/WX    TMP DP  RH WIND       PRES   REMARKS
GRAND FORKS    CLOUDY    34  29  82 W12       29.77R
GRAND FORKS AF CLOUDY    32  28  84 NW9       29.77S WCI  24
GRAND CITY NWS NOT AVBL
BUXTON           N/A     31  31  97 W9          N/A  WCI  23
DEVILS LAKE    CLOUDY    30  27  88 W14       29.76F WCI  19
FARGO          CLOUDY    35  30  82 NW5       29.79S
WAHPETON ARPT  CLOUDY    32  30  93 NW5       29.81S
$$

 *****  WEATHER ACROSS CENTRAL AND WESTERN NORTH DAKOTA  *****

CITY           SKY/WX    TMP DP  RH WIND       PRES   REMARKS
JAMESTOWN      CLOUDY    32  28  85 NW13      29.79S WCI  22
BISMARCK       CLOUDY    32  26  78 W8        29.84S WCI  25
MINOT          CLOUDY    31  26  82 W12       29.77S WCI  22
MINOT AFB      CLOUDY    29  27  89 W14       29.76F WCI  19
GARRISON         N/A     29  23  78 NW10      29.79S WCI  20
WILLISTON      CLOUDY    28  23  81 W7        29.81F WCI  21
DICKINSON      CLOUDY    25  22  88 NW13      29.79F WCI  14
HETTINGER      CLOUDY    25  22  88 NW14      29.83F WCI  13
$$

 *****  OTHER OBSERVATIONS NORTHEAST NORTH DAKOTA  *****

CITY           SKY/WX    TMP DP  RH WIND       PRES   REMARKS
WALHALLA       NOT AVBL
LANGDON        NOT AVBL
CAVALIER       CLOUDY    32  28  86 W6        29.75F
GRAFTON        CLOUDY    32  30  93 NW8       29.78S WCI  25
CANDO          NOT AVBL
FORT TOTTEN      N/A     29  29 100 NW5       29.95S WCI  24
ROLLA            N/A    N/A N/A N/A MISG        N/A
RUGBY            N/A     28  28 100 W12       29.76S WCI  18
 ***** THE ABOVE OBSERVATIONS ARE NON NWS ARE NOT QUALITY
        CONTROLLED AND MAY MIS-REPORT RAIN FOR SNOW...
$$

 *****  OTHER OBSERVATIONS SOUTHEAST NORTH DAKOTA *****

CITY           SKY/WX    TMP DP  RH WIND       PRES   REMARKS
COOPERSTOWN    CLOUDY    30  28  93 W15       29.78R WCI  19
VALLEY CITY    CLOUDY    32  32 100 NW12      29.81S WCI  23
OAKES          NOT AVBL
GWINNER        CLOUDY    34  32  93 NW13      29.82S WCI  25
SHEYENNE NWR     N/A     32  27  82 NW6       29.95S
BUFFALO          N/A     32  25  75 W10         N/A  WCI  23
WYNDMERE         N/A     34  32  93 W6          N/A
 ***** THE ABOVE OBSERVATIONS ARE NON NWS ARE NOT QUALITY
       CONTROLLED AND MAY MIS-REPORT RAIN FOR SNOW...
$$

  *****  WEATHER ACROSS NORTHERN MINNESOTA  *****

CITY           SKY/WX    TMP DP  RH WIND       PRES   REMARKS
FLAG ISLAND    FOG       32  32 100 CALM      29.72S VSB 3/4
WARROAD        FOG       34  28  80 CALM      29.73S VSB 1/4
ROSEAU         LGT SNOW  34  28  80 SW5       29.73S
HALLOCK        CLOUDY    34  32  93 SW3       29.75S FOG
THF RVR FALLS  CLOUDY    30  28  93 SW6       29.77R WCI  24
HALSTAD          N/A     32  30  92 W8          N/A
FOSSTON        MIX PCPN  30  30 100 SW7       29.76S VSB 1/2 WCI  23
BAUDETTE       FOG       33  32  96 CALM      29.71F VSB 3/4
WASKISH        FOG       34  34 100 SW3       29.73S VSB 3/4
CROOKSTON      CLOUDY    32  30  93 SW5       29.78S
$$
  *****  WEATHER ACROSS CENTRAL AND WEST MINNESOTA  *****

CITY           SKY/WX    TMP DP  RH WIND       PRES   REMARKS
BEMIDJI        CLOUDY    32  32 100 W8        29.74S FOG     WCI  25
PARK RAPIDS    CLOUDY    33  30  88 W8        29.74S
WADENA         CLOUDY    30  30 100 W7        29.76S FOG     WCI  23
DETROIT LAKES  CLOUDY    32  32 100 W6        29.78S FOG
MOORHEAD       CLOUDY    32  28  86 NW5       29.80F
FERGUS FALLS   CLOUDY    30  30 100 NW10      29.83S WCI  21
ELBOW LAKE     CLOUDY    31  31  99 NW9       29.80S FOG     WCI  23
MORRIS MN      CLOUDY    34  32  93 W9        29.80R FOG
STAPLES        CLOUDY    30  30 100 W6        29.76S FOG     WCI  24
WHEATON        CLOUDY    37  37 100 W10       29.83S
$$
  *****  WEATHER ELSEWHERE ACROSS MINNESOTA  *****

CITY           SKY/WX    TMP DP  RH WIND       PRES   REMARKS
DULUTH         CLOUDY    35  34  96 NW3       29.70F
INTRNTL FALLS  FOG       35  34  96 CALM      29.72S VSB 3/4
ELY            DRIZZLE   34  34 100 CALM      29.70F
CLOQUET        FOG       36  34  93 CALM      29.71F VSB 1/2
BRAINERD       CLOUDY    34  33  96 W8        29.75R FOG
HIBBING        CLOUDY    33  33 100 CALM      29.71S
ALEXANDRIA     CLOUDY    32  31  96 W10       29.78S FOG     WCI  24
SAINT CLOUD    CLOUDY    33  33 100 W6        29.77R
MINNEAPOLIS    CLOUDY    36  33  89 W6        29.78R
$$

  *****  WEATHER ACROSS SOUTH DAKOTA  *****

CITY           SKY/WX    TMP DP  RH WIND       PRES   REMARKS
SIOUX FALLS    FRZ DRZL  31  28  89 NW13      29.85S WCI  21
BROOKINGS      CLOUDY    29  28  96 NW13      29.82S WCI  19
WATERTOWN      CLOUDY    30  28  92 W9        29.81S WCI  22
HURON          CLOUDY    30  28  92 NW9       29.86F WCI  22
SISSETON         N/A     34  31  88 NW13      29.80S WCI  25
ABERDEEN       CLOUDY    32  26  78 NW9       29.85S WCI  24
MITCHELL       CLOUDY    32  28  85 NW9       29.89S WCI  24
PIERRE         CLOUDY    28  24  85 W6        29.87F WCI  22
MOBRIDGE       CLOUDY    30  24  78 NW6       29.83F WCI  24
RAPID CITY     FAIR      27  20  75 E3        29.82F
$$

  *****  SOME WEATHER IN NEARBY STATES *****

CITY           SKY/WX    TMP DP  RH WIND       PRES   REMARKS
GLASGOW MT     CLOUDY    29  25  85 SW6       29.79F WCI  23
GREAT FALLS MT FOG       24  23  96 NE9       29.70R VSB 1/4 WCI  14
CHEYENNE WY    FAIR      26  12  55 SW7       29.84F WCI  18
SCOTTSBLUFF NE FAIR      27  19  72 S3        29.86F
OMAHA NE       FAIR      32  27  81 N8        29.88S WCI  25
DES MOINES IA  CLOUDY    38  36  92 NW14      29.82R FOG
DAVENPORT IA   CLOUDY    35  34  96 NW8       29.73R
CHICAGO IL     CLOUDY    40  38  93 NE5       29.67R
EAU CLAIRE WI  FOG       35  35 100 W3        29.74S VSB 1
LA CROSSE WI   CLOUDY    39  35  86 CALM      29.75S
$$

  *****  SOME NATIONAL WEATHER *****

CITY           SKY/WX    TMP DP  RH WIND       PRES   REMARKS
LA GUARDIA NY  CLOUDY    49  40  71 NE18      29.79R
RALEIGH NC     RAIN      54  52  93 E9        29.50S FOG
ATLANTA GA     DRIZZLE   51  49  92 SW10      29.27R
NEW ORLEANS LA LGT RAIN  59  49  69 W16G28    29.58R
OKLAHOMA CITY  FAIR      45  32  60 NW10      29.92R
ALBUQUERQUE NM CLOUDY    38  30  73 SW6       30.13S
SALT LAKE CITY CLOUDY    37  28  70 S20G29    29.73F
LOS ANGELES CA CLOUDY    54  54 100 VRB3      29.91R
BOISE ID       FAIR      34  30  85 W6        29.65S
SEATTLE WA     MOCLDY    43  36  76 E8        29.57S
$$

*** WEATHER ACROSS MANITOBA...SASKATCHEWAN AND ONTARIO ***
                ***ONTARIO***

CITY           SKY/WX    TMP DP  RH WIND       PRES   REMARKS
GERALDTON      LGT SNOW  30  30 100 E6        29.71S VSB 3/4 WCI  24
THUNDER BAY    CLOUDY    32  32 100 SW2       29.71S
SIOUX LOOKOUT  CLOUDY    32  32 100 VRB2      29.72S FOG
TORONTO        CLOUDY    37  32  81 E12G20    29.76R
BIG TROUT LK   CLOUDY    28  27  93 SE6       29.84S WCI  22
PICKLE LAKE    NOT AVBL
DRYDEN         FOG       34  34 100 NE3       29.71F VSB 1/8
KENORA         FOG       34  34 100 SW3       29.71S VSB 1/4
$$
                *** MANITOBA***

CITY           SKY/WX    TMP DP  RH WIND       PRES   REMARKS
BRANDON        CLOUDY    28  25  86 W10       29.72S WCI  19
DAUPHIN        FLURRIES  32  28  86 W12       29.69S WCI  23
ISLAND LAKE    FRZ DRZL  32  32 100 E5        29.77S
PILOT MOUND      N/A     28  27  93 W5          N/A  WCI  23
THE PAS        FLURRIES  30  28  93 NE5       29.76F
THOMPSON       FLURRIES  25  23  93 N8        29.85S WCI  16
WINNIPEG       LGT SNOW  32  32 100 SW6       29.73S FOG
LYNN LAKE      FLURRIES  14  12  92 NE12      29.92S WCI   0
CHURCHILL      CLOUDY    19  18  93 N15       30.00R FOG     WCI   5
GILLAM         LGT SNOW  23  21  93 NE7       29.88R WCI  15
$$
                ***SASKATCHEWAN***

CITY           SKY/WX    TMP DP  RH WIND       PRES   REMARKS
ESTEVAN        FLURRIES  27  23  86 W13       29.77S WCI  16
KINDERSLEY     FLURRIES  18  14  86 N7        29.81F WCI   8
LLOYDMINSTER   FLURRIES  16  14  93 N10       29.86S WCI   3
PRINCE ALBERT  LGT SNOW  21  18  86 N9        29.79S WCI  11
REGINA         CLOUDY    23  19  86 W15       29.77F WCI  10
YORKTON        FRZ RAIN  25  23  93 W15       29.70S WCC1F1C2F2C3F3C4F4C5F5C6F6C7F7C8F8C9F9CaFaCbFbCcFcCdFdCe!



USA.gov is the U.S. government's official web portal to all federal, state and local government web resources and services.